FW1506 Weather Reports


Display with metric or nautical units.
time (UTC)temp
F
wind
direction
speed
MPH
gust
MPH
rain 1hr
in
rain 24hr
in
rain mn
in
humidity
%
barometer
mb
20210128154330 10 67 3.0 10.0 0.00 0.00 0.00 71 1029.0
20210128153831 10 105 2.0 10.0 0.00 0.00 0.00 72 1029.1
20210128153327 10 86 2.0 5.0 0.00 0.00 0.00 73 1029.3
20210128152837 10 118 2.0 5.0 0.00 0.00 0.00 74 1029.2
20210128152335 9 96 2.0 7.0 0.00 0.00 0.00 75 1029.3
20210128151832 9 118 2.0 7.0 0.00 0.00 0.00 76 1029.5
20210128151331 8 158 3.0 6.0 0.00 0.00 0.00 77 1029.8
20210128150839 7 137 2.0 4.0 0.00 0.00 0.00 77 1029.7
20210128150334 7 60 1.0 3.0 0.00 0.00 0.00 77 1029.7
20210128145831 7 109 1.0 4.0 0.00 0.00 0.00 78 1029.7
20210128145336 6 104 1.0 5.0 0.00 0.00 0.00 78 1029.6
20210128144835 6 129 1.0 7.0 0.00 0.00 0.00 78 1029.5
20210128144334 6 132 2.0 6.0 0.00 0.00 0.00 79 1029.6
20210128143836 5 123 1.0 4.0 0.00 0.00 0.00 79 1029.6
20210128143332 5 105 1.0 3.0 0.00 0.00 0.00 79 1029.6
20210128142838 5 113 1.0 3.0 0.00 0.00 0.00 79 1029.7
20210128142331 5 85 0.0 3.0 0.00 0.00 0.00 79 1029.9
20210128141820 5 144 1.0 3.0 0.00 0.00 0.00 79 1029.8
20210128141322 4 89 1.0 3.0 0.00 0.00 0.00 79 1029.8
20210128140826 4 69 1.0 3.0 0.00 0.00 0.00 79 1029.9
20210128140325 4 129 0.0 2.0 0.00 0.00 0.00 79 1030.0
20210128135839 4 117 0.0 2.0 0.00 0.00 0.00 79 1029.9
20210128135333 4 115 0.0 2.0 0.00 0.00 0.00 79 1029.8
20210128134826 4 68 0.0 2.0 0.00 0.00 0.00 79 1029.7
20210128134322 4 123 0.0 1.0 0.00 0.00 0.00 79 1029.7
20210128133834 4 117 0.0 1.0 0.00 0.00 0.00 78 1029.6
20210128133334 4 101 0.0 2.0 0.00 0.00 0.00 78 1029.7
20210128132820 5 138 0.0 2.0 0.00 0.00 0.00 78 1029.9
20210128132320 5 127 0.0 2.0 0.00 0.00 0.00 78 1029.9
20210128131823 5 108 0.0 2.0 0.00 0.00 0.00 78 1029.8
20210128131328 5 120 0.0 2.0 0.00 0.00 0.00 78 1029.7
20210128130835 5 113 0.0 2.0 0.00 0.00 0.00 78 1029.9
20210128130332 5 117 1.0 2.0 0.00 0.00 0.00 78 1029.9
20210128125822 5 129 1.0 2.0 0.00 0.00 0.00 78 1030.1
20210128125329 5 97 0.0 2.0 0.00 0.00 0.00 78 1030.1
20210128124833 5 100 0.0 2.0 0.00 0.00 0.00 78 1030.3
20210128124329 5 129 0.0 2.0 0.00 0.00 0.00 77 1030.3
20210128123838 5 138 0.0 3.0 0.00 0.00 0.00 77 1030.3
20210128123337 5 103 1.0 4.0 0.00 0.00 0.00 77 1030.4
20210128122828 5 132 1.0 3.0 0.00 0.00 0.00 77 1030.3
20210128122325 5 114 0.0 2.0 0.00 0.00 0.00 76 1030.4
20210128121832 5 103 0.0 2.0 0.00 0.00 0.00 76 1030.5
20210128121336 5 89 0.0 3.0 0.00 0.00 0.00 76 1030.5
20210128120846 5 84 1.0 4.0 0.00 0.00 0.00 76 1030.4
20210128120339 5 129 1.0 4.0 0.00 0.00 0.00 76 1030.5
20210128115828 5 90 1.0 4.0 0.00 0.00 0.00 76 1030.4
20210128115331 5 105 1.0 4.0 0.00 0.00 0.00 76 1030.4
20210128114832 5 97 1.0 2.0 0.00 0.00 0.00 76 1030.5
20210128114338 5 101 1.0 3.0 0.00 0.00 0.00 76 1030.6
20210128113822 4 84 0.0 1.0 0.00 0.00 0.00 76 1030.7
20210128113341 4 122 0.0 1.0 0.00 0.00 0.00 75 1030.9
20210128112826 4 97 0.0 1.0 0.00 0.00 0.00 75 1030.9
20210128112324 4 101 0.0 1.0 0.00 0.00 0.00 75 1030.9
20210128111832 4 122 0.0 1.0 0.00 0.00 0.00 75 1030.8
20210128111344 4 129 0.0 1.0 0.00 0.00 0.00 75 1030.8
20210128110818 4 110 0.0 1.0 0.00 0.00 0.00 75 1030.6
20210128110323 4 105 0.0 1.0 0.00 0.00 0.00 75 1030.5
20210128105833 4 101 0.0 1.0 0.00 0.00 0.00 75 1030.5
20210128105329 4 92 0.0 2.0 0.00 0.00 0.00 75 1030.3
20210128104846 4 77 1.0 2.0 0.00 0.00 0.00 75 1030.3
20210128104334 4 80 1.0 3.0 0.00 0.00 0.00 75 1030.3
20210128103824 4 96 1.0 3.0 0.00 0.00 0.00 75 1030.4
20210128103323 4 102 1.0 3.0 0.00 0.00 0.00 76 1030.5
20210128102830 4 138 1.0 3.0 0.00 0.00 0.00 76 1030.5
20210128102327 4 66 1.0 4.0 0.00 0.00 0.00 76 1030.6
20210128101834 4 79 1.0 3.0 0.00 0.00 0.00 76 1030.8
20210128101343 4 85 1.0 3.0 0.00 0.00 0.00 76 1031.0
20210128100826 3 73 1.0 3.0 0.00 0.00 0.00 76 1031.0
20210128100330 3 69 0.0 4.0 0.00 0.00 0.00 77 1031.1
20210128095848 3 105 2.0 4.0 0.00 0.00 0.00 77 1031.1
20210128095334 3 91 1.0 3.0 0.00 0.00 0.00 77 1031.1
20210128094819 3 57 0.0 2.0 0.00 0.00 0.00 77 1031.3
20210128094322 3 81 0.0 1.0 0.00 0.00 0.00 77 1031.4
20210128093826 3 92 0.0 1.0 0.00 0.00 0.00 77 1031.4
20210128093335 3 114 0.0 1.0 0.00 0.00 0.00 77 1031.5
20210128092836 3 86 0.0 1.0 0.00 0.00 0.00 77 1031.5
20210128092335 3 117 0.0 1.0 0.00 0.00 0.00 77 1031.5
20210128091822 3 110 0.0 0.0 0.00 0.00 0.00 76 1031.6
20210128091325 3 86 0.0 0.0 0.00 0.00 0.00 76 1031.6
20210128090837 3 86 0.0 1.0 0.00 0.00 0.00 76 1031.8
20210128090335 3 86 0.0 1.0 0.00 0.00 0.00 76 1031.8
20210128085819 4 85 0.0 1.0 0.00 0.00 0.00 76 1031.7
20210128085321 4 110 0.0 1.0 0.00 0.00 0.00 76 1031.7
20210128084828 3 89 0.0 1.0 0.00 0.00 0.00 76 1031.6
20210128084328 3 81 0.0 1.0 0.00 0.00 0.00 76 1031.6
20210128083839 3 79 0.0 1.0 0.00 0.00 0.00 76 1031.7
20210128083334 3 142 0.0 0.0 0.00 0.00 0.00 75 1031.7
20210128082339 4 142 0.0 1.0 0.00 0.00 0.00 75 1031.7
20210128081823 4 129 0.0 1.0 0.00 0.00 0.00 75 1031.8
20210128081321 4 117 0.0 1.0 0.00 0.00 0.00 74 1031.7
20210128080829 4 136 0.0 1.0 0.00 0.00 0.00 74 1031.7
20210128080330 4 132 0.0 1.0 0.00 0.00 0.00 74 1031.7
20210128075820 4 135 0.0 1.0 0.00 0.00 0.00 74 1031.5
20210128075321 4 129 0.0 1.0 0.00 0.00 0.00 74 1031.3
20210128074827 4 124 0.0 1.0 0.00 0.00 0.00 74 1031.4
20210128074328 4 139 0.0 1.0 0.00 0.00 0.00 74 1031.4
20210128073834 5 129 0.0 1.0 0.00 0.00 0.00 73 1031.4
20210128073339 5 129 0.0 1.0 0.00 0.00 0.00 73 1031.4
20210128072817 5 132 0.0 1.0 0.00 0.00 0.00 74 1031.5
20210128072320 5 134 0.0 3.0 0.00 0.00 0.00 74 1031.6
20210128071825 5 150 0.0 3.0 0.00 0.00 0.00 74 1031.5
20210128071325 5 152 0.0 3.0 0.00 0.00 0.00 74 1031.5
20210128070831 5 142 1.0 3.0 0.00 0.00 0.00 74 1031.4
20210128070330 5 124 0.0 2.0 0.00 0.00 0.00 74 1031.5
20210128065823 5 120 0.0 2.0 0.00 0.00 0.00 74 1031.5
20210128065321 5 135 0.0 2.0 0.00 0.00 0.00 75 1031.5
20210128064830 5 84 0.0 2.0 0.00 0.00 0.00 75 1031.5
20210128064328 5 135 0.0 2.0 0.00 0.00 0.00 75 1031.6
20210128063835 5 174 0.0 1.0 0.00 0.00 0.00 75 1031.7
20210128063337 5 152 0.0 1.0 0.00 0.00 0.00 76 1031.7
20210128062821 5 146 0.0 1.0 0.00 0.00 0.00 76 1031.7
20210128062325 5 118 0.0 1.0 0.00 0.00 0.00 76 1031.7
20210128061827 5 136 0.0 1.0 0.00 0.00 0.00 76 1031.8
20210128061327 5 114 0.0 2.0 0.00 0.00 0.00 76 1031.8
20210128060821 5 66 1.0 2.0 0.00 0.00 0.00 76 1031.8
20210128060321 5 100 1.0 3.0 0.00 0.00 0.00 76 1031.8
20210128055826 5 91 0.0 1.0 0.00 0.00 0.00 75 1031.9
20210128055330 5 110 0.0 1.0 0.00 0.00 0.00 75 1032.0
20210128054834 5 93 0.0 2.0 0.00 0.00 0.00 75 1031.9
20210128054332 5 112 0.0 2.0 0.00 0.00 0.00 76 1032.0
20210128053818 5 82 0.0 2.0 0.00 0.00 0.00 76 1032.1
20210128053318 4 129 0.0 1.0 0.00 0.00 0.00 76 1032.2
20210128052826 4 95 0.0 2.0 0.00 0.00 0.00 75 1032.2
20210128052325 4 87 0.0 2.0 0.00 0.00 0.00 75 1032.1
20210128051831 4 82 0.0 3.0 0.00 0.00 0.00 75 1032.3
20210128051330 4 89 1.0 3.0 0.00 0.00 0.00 75 1032.1
20210128050829 4 83 0.0 1.0 0.00 0.00 0.00 75 1032.2
20210128050321 4 89 0.0 1.0 0.00 0.00 0.00 74 1032.3
20210128045826 4 95 0.0 1.0 0.00 0.00 0.00 74 1032.3
20210128045326 4 96 0.0 1.0 0.00 0.00 0.00 74 1032.3
20210128044833 4 90 0.0 1.0 0.00 0.00 0.00 74 1032.3
20210128044334 4 98 0.0 1.0 0.00 0.00 0.00 74 1032.4
20210128043822 4 149 0.0 1.0 0.00 0.00 0.00 74 1032.5
20210128043322 4 132 0.0 1.0 0.00 0.00 0.00 74 1032.4
20210128042828 4 117 0.0 1.0 0.00 0.00 0.00 74 1032.3
20210128042329 4 110 0.0 1.0 0.00 0.00 0.00 74 1032.1
20210128041818 4 79 0.0 1.0 0.00 0.00 0.00 74 1032.1
20210128041326 4 133 0.0 1.0 0.00 0.00 0.00 74 1031.9
20210128040824 4 129 0.0 1.0 0.00 0.00 0.00 73 1031.9
20210128040324 4 124 0.0 1.0 0.00 0.00 0.00 73 1031.9
20210128035831 3 72 0.0 1.0 0.00 0.00 0.00 73 1031.8
20210128035330 3 95 0.0 1.0 0.00 0.00 0.00 73 1031.8
20210128034835 3 129 0.0 1.0 0.00 0.00 0.00 73 1031.9
20210128034333 3 134 0.0 1.0 0.00 0.00 0.00 73 1031.9
20210128033820 3 107 0.0 1.0 0.00 0.00 0.00 73 1031.9
20210128033318 3 144 0.0 2.0 0.00 0.00 0.00 73 1031.8
20210128032825 3 92 0.0 2.0 0.00 0.00 0.00 73 1031.8
20210128032324 3 84 0.0 2.0 0.00 0.00 0.00 73 1031.7
20210128031840 3 95 0.0 2.0 0.00 0.00 0.00 73 1031.7
20210128031335 3 105 1.0 3.0 0.00 0.00 0.00 73 1031.5
20210128030828 3 105 0.0 2.0 0.00 0.00 0.00 73 1031.5
20210128030321 3 121 0.0 1.0 0.00 0.00 0.00 73 1031.5
20210128025826 3 81 0.0 2.0 0.00 0.00 0.00 73 1031.6
20210128025340 3 93 0.0 3.0 0.00 0.00 0.00 73 1031.7
20210128024850 3 68 0.0 3.0 0.00 0.00 0.00 73 1031.8
20210128024336 3 84 1.0 3.0 0.00 0.00 0.00 73 1031.8
20210128023818 3 83 0.0 1.0 0.00 0.00 0.00 73 1031.8
20210128023323 2 108 0.0 1.0 0.00 0.00 0.00 73 1031.7
20210128022826 2 88 0.0 1.0 0.00 0.00 0.00 73 1031.7
20210128022331 2 84 0.0 1.0 0.00 0.00 0.00 73 1031.8
20210128021834 2 95 0.0 1.0 0.00 0.00 0.00 73 1031.8
20210128021335 2 94 0.0 1.0 0.00 0.00 0.00 73 1031.8
20210128020822 2 90 0.0 1.0 0.00 0.00 0.00 73 1031.8
20210128020321 2 101 0.0 1.0 0.00 0.00 0.00 72 1031.8
20210128015828 2 96 0.0 2.0 0.00 0.00 0.00 72 1031.9
20210128015336 2 72 0.0 2.0 0.00 0.00 0.00 72 1031.8
20210128014831 2 72 1.0 3.0 0.00 0.00 0.00 72 1031.9
20210128014331 2 77 0.0 4.0 0.00 0.00 0.00 72 1032.0
20210128013818 2 83 1.0 4.0 0.00 0.00 0.00 72 1031.8
20210128013339 2 71 0.0 2.0 0.00 0.00 0.00 72 1031.9
20210128012827 2 50 1.0 3.0 0.00 0.00 0.00 72 1031.9
20210128012328 2 64 1.0 3.0 0.00 0.00 0.00 72 1031.8
20210128011834 2 107 1.0 2.0 0.00 0.00 0.00 71 1031.9
20210128011335 2 73 0.0 3.0 0.00 0.00 0.00 71 1031.8
20210128010821 2 70 1.0 3.0 0.00 0.00 0.00 71 1031.9
20210128010327 2 68 0.0 3.0 0.00 0.00 0.00 71 1031.8
20210128005827 2 57 1.0 4.0 0.00 0.00 0.00 71 1031.9
20210128005334 2 96 0.0 2.0 0.00 0.00 0.00 71 1031.9
20210128004843 2 73 1.0 3.0 0.00 0.00 0.00 71 1031.9
20210128004354 2 85 1.0 3.0 0.00 0.00 0.00 71 1031.8
20210128003822 2 83 0.0 2.0 0.00 0.00 0.00 72 1031.8
20210128003325 2 79 0.0 2.0 0.00 0.00 0.00 72 1031.8
20210128002838 2 78 0.0 2.0 0.00 0.00 0.00 72 1031.8
20210128002332 2 118 1.0 2.0 0.00 0.00 0.00 71 1031.7
20210128001818 2 84 0.0 2.0 0.00 0.00 0.00 71 1031.6
20210128001342 2 97 1.0 2.0 0.00 0.00 0.00 71 1031.5
20210128000837 2 108 1.0 3.0 0.00 0.00 0.00 71 1031.6
20210128000609 2 75 1.0 3.0 0.00 0.00 0.00 71 1031.5
20210127235829 2 98 1.0 3.0 0.00 0.00 0.00 71 1031.4
20210127235328 2 77 0.0 2.0 0.00 0.00 0.00 71 1031.4
20210127234842 2 95 0.0 2.0 0.00 0.00 0.00 71 1031.6
20210127234335 2 88 1.0 2.0 0.00 0.00 0.00 71 1031.6
20210127233821 2 105 0.0 2.0 0.00 0.00 0.00 71 1031.7
20210127233326 2 87 0.0 2.0 0.00 0.00 0.00 71 1031.7
20210127232827 2 65 0.0 1.0 0.00 0.00 0.00 71 1031.8
20210127232327 2 37 0.0 1.0 0.00 0.00 0.00 71 1031.7
20210127231835 2 68 0.0 1.0 0.00 0.00 0.00 71 1031.6
20210127231339 2 96 0.0 2.0 0.00 0.00 0.00 70 1031.5
20210127230832 3 86 0.0 3.0 0.00 0.00 0.00 70 1031.6
20210127230321 3 114 1.0 3.0 0.00 0.00 0.00 70 1031.6
20210127225827 3 67 1.0 3.0 0.00 0.00 0.00 69 1031.5
20210127225326 3 68 1.0 3.0 0.00 0.00 0.00 69 1031.6
20210127224837 3 105 1.0 3.0 0.00 0.00 0.00 69 1031.8
20210127224319 3 90 1.0 3.0 0.00 0.00 0.00 69 1031.7
20210127223824 3 69 0.0 2.0 0.00 0.00 0.00 69 1031.7
20210127223323 3 88 0.0 1.0 0.00 0.00 0.00 68 1031.9
20210127222830 3 64 0.0 1.0 0.00 0.00 0.00 68 1031.9
20210127222330 3 105 0.0 1.0 0.00 0.00 0.00 68 1032.0
20210127221817 3 97 1.0 1.0 0.00 0.00 0.00 68 1031.9
20210127221318 3 70 0.0 2.0 0.00 0.00 0.00 68 1031.8
20210127220823 3 97 0.0 2.0 0.00 0.00 0.00 68 1031.7
20210127220325 3 113 1.0 2.0 0.00 0.00 0.00 67 1031.7
20210127215838 3 97 1.0 3.0 0.00 0.00 0.00 67 1031.6
20210127215329 3 89 0.0 4.0 0.00 0.00 0.00 67 1031.6
20210127214821 3 75 1.0 4.0 0.00 0.00 0.00 67 1031.7
20210127214320 3 90 1.0 2.0 0.00 0.00 0.00 67 1031.7
20210127213827 3 95 0.0 2.0 0.00 0.00 0.00 67 1031.7
20210127213327 3 44 1.0 2.0 0.00 0.00 0.00 67 1031.6
20210127212831 3 77 1.0 2.0 0.00 0.00 0.00 67 1031.6
20210127212331 3 77 1.0 2.0 0.00 0.00 0.00 67 1031.6
20210127211819 3 65 1.0 2.0 0.00 0.00 0.00 67 1031.6
20210127211319 3 69 1.0 2.0 0.00 0.00 0.00 67 1031.7
20210127210826 3 94 0.0 1.0 0.00 0.00 0.00 68 1031.6
20210127210326 3 96 0.0 2.0 0.00 0.00 0.00 67 1031.6
20210127205841 3 96 0.0 2.0 0.00 0.00 0.00 68 1031.6
20210127205339 3 44 1.0 2.0 0.00 0.00 0.00 68 1031.4
20210127204822 2 87 1.0 3.0 0.00 0.00 0.00 67 1031.3
20210127204322 2 64 1.0 3.0 0.00 0.00 0.00 67 1031.4
20210127203834 2 84 1.0 5.0 0.00 0.00 0.00 67 1031.3
20210127203327 2 82 1.0 5.0 0.00 0.00 0.00 68 1031.2
20210127202839 2 96 1.0 5.0 0.00 0.00 0.00 67 1031.2
20210127202335 2 68 1.0 3.0 0.00 0.00 0.00 67 1031.3
20210127201825 2 89 1.0 3.0 0.00 0.00 0.00 68 1031.3
20210127201323 2 96 1.0 4.0 0.00 0.00 0.00 67 1031.4
20210127200832 2 89 2.0 5.0 0.00 0.00 0.00 67 1031.5
20210127200327 2 71 3.0 5.0 0.00 0.00 0.00 67 1031.5
20210127195820 2 70 1.0 5.0 0.00 0.00 0.00 67 1031.5
20210127195323 2 76 2.0 5.0 0.00 0.00 0.00 67 1031.4
20210127194824 2 35 1.0 5.0 0.00 0.00 0.00 68 1031.7
20210127194324 1 113 1.0 4.0 0.00 0.00 0.00 67 1031.8
20210127193830 1 80 2.0 4.0 0.00 0.00 0.00 67 1031.8
20210127193347 1 66 1.0 5.0 0.00 0.00 0.00 68 1031.7
20210127192819 1 60 2.0 5.0 0.00 0.00 0.00 67 1031.7
20210127192322 1 78 2.0 4.0 0.00 0.00 0.00 67 1031.7
20210127191825 1 95 2.0 4.0 0.00 0.00 0.00 68 1031.8
20210127191331 1 59 1.0 5.0 0.00 0.00 0.00 68 1031.8
20210127190832 1 71 2.0 5.0 0.00 0.00 0.00 68 1031.9
20210127190332 1 98 3.0 4.0 0.00 0.00 0.00 68 1032.0
20210127185822 1 79 0.0 3.0 0.00 0.00 0.00 68 1032.1
20210127185335 1 100 1.0 3.0 0.00 0.00 0.00 68 1032.0
20210127184829 1 143 1.0 3.0 0.00 0.00 0.00 69 1032.1
20210127184328 1 96 1.0 2.0 0.00 0.00 0.00 70 1032.1
20210127183839 0 90 0.0 2.0 0.00 0.00 0.00 70 1032.3
20210127183337 0 65 1.0 2.0 0.00 0.00 0.00 70 1032.2
20210127182820 0 77 1.0 2.0 0.00 0.00 0.00 71 1032.2
20210127182320 -1 91 0.0 1.0 0.00 0.00 0.00 72 1032.2
20210127181831 -1 85 0.0 1.0 0.00 0.00 0.00 71 1032.3
20210127181330 -2 105 0.0 2.0 0.00 0.00 0.00 71 1032.2
20210127180820 -2 82 0.0 2.0 0.00 0.00 0.00 71 1032.3
20210127180348 -2 102 1.0 2.0 0.00 0.00 0.00 71 1032.3
20210127175831 -1 72 1.0 2.0 0.00 0.00 0.00 72 1032.4
20210127175335 -2 129 0.0 1.0 0.00 0.00 0.00 73 1032.5
20210127174852 -2 135 0.0 2.0 0.00 0.00 0.00 74 1032.7
20210127174335 -3 116 0.0 2.0 0.00 0.00 0.00 74 1032.8
20210127173838 -3 97 0.0 2.0 0.00 0.00 0.00 75 1032.8
20210127173350 -4 82 0.0 2.0 0.00 0.00 0.00 75 1032.7
20210127172831 -4 91 0.0 2.0 0.00 0.00 0.00 74 1032.7
20210127172327 -4 93 0.0 2.0 0.00 0.00 0.00 74 1032.8
20210127171827 -4 82 0.0 2.0 0.00 0.00 0.00 75 1032.9
20210127171328 -4 139 0.0 2.0 0.00 0.00 0.00 75 1032.7
20210127170827 -4 124 0.0 3.0 0.00 0.00 0.00 75 1032.8
20210127170322 -4 144 1.0 3.0 0.00 0.00 0.00 76 1032.7
20210127165832 -4 135 0.0 4.0 0.00 0.00 0.00 77 1032.6
20210127165336 -5 169 1.0 3.0 0.00 0.00 0.00 78 1032.5
20210127164828 -5 96 0.0 1.0 0.00 0.00 0.00 78 1032.4
20210127164328 -5 97 0.0 1.0 0.00 0.00 0.00 79 1032.4
20210127163835 -6 96 0.0 2.0 0.00 0.00 0.00 79 1032.3
20210127163346 -6 135 0.0 3.0 0.00 0.00 0.00 78 1032.2
20210127162850 -6 89 1.0 3.0 0.00 0.00 0.00 78 1032.3
20210127162322 -6 68 0.0 2.0 0.00 0.00 0.00 79 1032.3
20210127161833 -6 49 1.0 2.0 0.00 0.00 0.00 80 1032.3
20210127161340 -6 102 0.0 1.0 0.00 0.00 0.00 82 1032.2
20210127160821 -7 135 0.0 1.0 0.00 0.00 0.00 82 1032.1
20210127160318 -8 81 0.0 1.0 0.00 0.00 0.00 82 1032.0
20210127155825 -9 82 0.0 1.0 0.00 0.00 0.00 82 1031.9
20210127155326 -10 91 0.0 1.0 0.00 0.00 0.00 82 1031.9
20210127154832 -10 89 0.0 1.0 0.00 0.00 0.00 82 1031.8